Location: Newark
(30.1000°N, 109.4667°E)
Time: 00:54:40
(UTC+00:00)

Courier 1B Rocket - Pass Details

Date: 23 February 2020
Orbit: 920 x 1202 km, 28.2° (Epoch: 01 April)

Event Time Altitude Azimuth Distance (km) Brightness Sun altitude
Exits shadow 21:48:44 25° 238° (WSW) 1,942 6.1 -19.3°
Maximum altitude 21:51:10 32° 203° (SSW) 1,736 6.1 -18.7°
Drops below altitude 10° 21:57:25 10° 144° (SE) 2,957 8.0 -17.4°
Sets 22:00:36 0° 134° (SE) 3,959 8.9 -16.7°
